Sister Bay, Wisconsin, United States (54234)
Lat: 45.19N, Lon: 87.12W
Wx Zone: WIZ022
Local Info
Past Weather Observations for Friday, August 26, 2016

NOTE: This archive is for the closest National Weather Service station to Sister Bay. Information may differ from the station used for current weather conditions.

Click here for Long-term Archive

Time Weather Temperature Dewpoint Humidity Pressure Winds Precip Visibility
23:55
Clear
55°F / 13°C 54°F / 12°C 94% 30.09 in
(1019 mb)
W 3.5 mph
(W 6 kph)
- 10SM
23:35
Clear
55°F / 13°C 54°F / 12°C 94% 30.09 in
(1019 mb)
Calm - 10SM
23:15
Clear
55°F / 13°C 54°F / 12°C 94% 30.09 in
(1019 mb)
Calm - 10SM
22:55
Clear
55°F / 13°C 54°F / 12°C 94% 30.09 in
(1019 mb)
Calm - 10SM
22:35
Clear
55°F / 13°C 54°F / 12°C 94% 30.09 in
(1019 mb)
Calm - 10SM
22:15
Clear
55°F / 13°C 54°F / 12°C 94% 30.09 in
(1019 mb)
Calm - 10SM
21:55
Clear
57°F / 14°C 54°F / 12°C 88% 30.06 in
(1018 mb)
Calm - 10SM
21:35
Clear
59°F / 15°C 55°F / 13°C 88% 30.06 in
(1018 mb)
Calm - 10SM
21:15
Clear
59°F / 15°C 55°F / 13°C 88% 30.06 in
(1018 mb)
W 5.8 mph
(W 9 kph)
- 10SM
20:55
Partly Cloudy
59°F / 15°C 55°F / 13°C 88% 30.06 in
(1018 mb)
W 6.9 mph
(W 11 kph)
- 10SM
20:35
Partly Cloudy
61°F / 16°C 55°F / 13°C 83% 30.06 in
(1018 mb)
W 6.9 mph
(W 11 kph)
- 10SM
20:15
Clear
61°F / 16°C 55°F / 13°C 83% 30.06 in
(1018 mb)
Calm - 10SM
19:55
Clear
61°F / 16°C 54°F / 12°C 77% 30.06 in
(1018 mb)
Calm - 10SM
19:35
Clear
63°F / 17°C 54°F / 12°C 73% 30.04 in
(1017 mb)
W 6.9 mph
(W 11 kph)
- 10SM
19:15
Clear
63°F / 17°C 54°F / 12°C 73% 30.04 in
(1017 mb)
W 6.9 mph
(W 11 kph)
- 10SM
18:55
Clear
64°F / 18°C 54°F / 12°C 68% 30.04 in
(1017 mb)
W 8.1 mph
(W 13 kph)
- 10SM
18:35
Clear
68°F / 20°C 55°F / 13°C 64% 30.04 in
(1017 mb)
W 9.2 mph
(W 15 kph)
- 10SM
18:15
Clear
68°F / 20°C 57°F / 14°C 69% 30.01 in
(1016 mb)
W 8.1 mph
(W 13 kph)
- 10SM
17:55
Clear
70°F / 21°C 57°F / 14°C 64% 30.01 in
(1016 mb)
SSW 10.4 mph
(SSW 17 kph)
- 10SM
17:15
Clear
72°F / 22°C 57°F / 14°C 61% 30.01 in
(1016 mb)
SSW 15 mph
(SSW 24 kph)
- 10SM
16:55
Partly Cloudy
73°F / 23°C 55°F / 13°C 53% 30.01 in
(1016 mb)
W 15 mph
(W 24 kph)
- 10SM
16:35
Partly Cloudy
73°F / 23°C 57°F / 14°C 57% 30.01 in
(1016 mb)
SSW 13.8 mph
(SSW 22 kph)
- 10SM
16:15
Partly Cloudy
73°F / 23°C 57°F / 14°C 57% 30.01 in
(1016 mb)
SSW 16.1 mph
(SSW 26 kph)
- 10SM
15:55
Partly Cloudy
73°F / 23°C 59°F / 15°C 61% 30.01 in
(1016 mb)
SSW 13.8 mph
(SSW 22 kph)
- 10SM
15:35
Partly Cloudy
73°F / 23°C 59°F / 15°C 61% 30.01 in
(1016 mb)
SSW 16.1 mph
(SSW 26 kph)
- 10SM
15:15
Partly Cloudy
73°F / 23°C 57°F / 14°C 57% 30.01 in
(1016 mb)
SSW 16.1 mph
(SSW 26 kph)
- 10SM
14:55
Partly Cloudy
75°F / 24°C 57°F / 14°C 54% 30.01 in
(1016 mb)
SSW 15 mph
(SSW 24 kph)
- 10SM
14:35
Partly Cloudy
75°F / 24°C 57°F / 14°C 54% 30.01 in
(1016 mb)
SSW 17.3 mph
(SSW 28 kph)
- 10SM
14:15
Partly Cloudy
75°F / 24°C 57°F / 14°C 54% 30.01 in
(1016 mb)
SSW 13.8 mph
(SSW 22 kph)
- 10SM
13:55
Partly Cloudy
75°F / 24°C 57°F / 14°C 54% 30.01 in
(1016 mb)
W 13.8 mph
(W 22 kph)
- 10SM
13:35
Partly Cloudy
75°F / 24°C 57°F / 14°C 54% 30.01 in
(1016 mb)
W 12.7 mph
(W 20 kph)
- 10SM
13:15
Partly Cloudy
75°F / 24°C 57°F / 14°C 54% 30.01 in
(1016 mb)
SSW 15 mph
(SSW 24 kph)
- 10SM
12:55
Partly Cloudy
75°F / 24°C 59°F / 15°C 57% 30.01 in
(1016 mb)
W 15 mph
(W 24 kph)
- 10SM
12:35
Clear
75°F / 24°C 57°F / 14°C 54% 30.04 in
(1017 mb)
SSW 16.1 mph
(SSW 26 kph)
- 10SM
12:15
Partly Cloudy
75°F / 24°C 57°F / 14°C 54% 30.04 in
(1017 mb)
W 15 mph
(W 24 kph)
- 10SM
11:55
Clear
75°F / 24°C 57°F / 14°C 54% 30.04 in
(1017 mb)
SSW 15 mph
(SSW 24 kph)
- 10SM
11:35
Clear
73°F / 23°C 55°F / 13°C 53% 30.04 in
(1017 mb)
W 12.7 mph
(W 20 kph)
- 10SM
11:15
Clear
73°F / 23°C 57°F / 14°C 57% 30.04 in
(1017 mb)
SSW 12.7 mph
(SSW 20 kph)
- 10SM
10:55
Clear
73°F / 23°C 55°F / 13°C 53% 30.04 in
(1017 mb)
SSW 15 mph
(SSW 24 kph)
- 10SM
10:35
Clear
73°F / 23°C 55°F / 13°C 53% 30.04 in
(1017 mb)
WNW 9.2 mph
(WNW 15 kph)
- 10SM
10:15
Clear
72°F / 22°C 55°F / 13°C 57% 30.04 in
(1017 mb)
W 10.4 mph
(W 17 kph)
- 10SM
09:55
Clear
72°F / 22°C 55°F / 13°C 57% 30.04 in
(1017 mb)
W 10.4 mph
(W 17 kph)
- 10SM
09:35
Clear
70°F / 21°C 55°F / 13°C 60% 30.04 in
(1017 mb)
WNW 11.5 mph
(WNW 19 kph)
- 10SM
09:15
Clear
70°F / 21°C 57°F / 14°C 64% 30.04 in
(1017 mb)
W 9.2 mph
(W 15 kph)
- 10SM
08:55
Clear
66°F / 19°C 57°F / 14°C 73% 30.04 in
(1017 mb)
NW 6.9 mph
(NW 11 kph)
- 10SM
08:35
Clear
66°F / 19°C 59°F / 15°C 78% 30.04 in
(1017 mb)
WNW 4.6 mph
(WNW 7 kph)
- 10SM
08:15
Clear
64°F / 18°C 59°F / 15°C 83% 30.04 in
(1017 mb)
Calm - 10SM
07:55
Clear
64°F / 18°C 59°F / 15°C 83% 30.04 in
(1017 mb)
NW 5.8 mph
(NW 9 kph)
- 10SM
07:35
Clear
63°F / 17°C 59°F / 15°C 88% 30.01 in
(1016 mb)
NW 6.9 mph
(NW 11 kph)
- 10SM
07:15
Clear
61°F / 16°C 59°F / 15°C 94% 30.04 in
(1017 mb)
Calm - 10SM
06:55
Clear
61°F / 16°C 59°F / 15°C 94% 30.04 in
(1017 mb)
NW 4.6 mph
(NW 7 kph)
- 10SM
06:35
Clear
59°F / 15°C 57°F / 14°C 94% 30.04 in
(1017 mb)
Calm - 10SM
06:15
Clear
57°F / 14°C 57°F / 14°C 100% 30.04 in
(1017 mb)
Calm - 10SM
05:55
Clear
57°F / 14°C 57°F / 14°C 100% 30.01 in
(1016 mb)
Calm - 10SM
05:35
Clear
55°F / 13°C 55°F / 13°C 100% 30.01 in
(1016 mb)
Calm - 10SM
05:15
Clear
55°F / 13°C 55°F / 13°C 100% 30.01 in
(1016 mb)
Calm - 10SM
04:55
Clear
57°F / 14°C 57°F / 14°C 100% 30.01 in
(1016 mb)
Calm - 10SM
04:35
Clear
57°F / 14°C 57°F / 14°C 100% 30.01 in
(1016 mb)
Calm - 10SM
04:15
Clear
57°F / 14°C 57°F / 14°C 100% 30.01 in
(1016 mb)
Calm - 10SM
03:55
Clear
57°F / 14°C 57°F / 14°C 100% 30.01 in
(1016 mb)
Calm - 10SM
03:35
Clear
59°F / 15°C 57°F / 14°C 94% 30.01 in
(1016 mb)
WNW 5.8 mph
(WNW 9 kph)
- 10SM
03:15
Clear
59°F / 15°C 57°F / 14°C 94% 30.01 in
(1016 mb)
WNW 5.8 mph
(WNW 9 kph)
- 10SM
02:55
Clear
59°F / 15°C 57°F / 14°C 94% 30.01 in
(1016 mb)
W 5.8 mph
(W 9 kph)
- 10SM
02:35
Clear
59°F / 15°C 57°F / 14°C 94% 30.01 in
(1016 mb)
Calm - 10SM
02:15
Clear
59°F / 15°C 57°F / 14°C 94% 29.98 in
(1015 mb)
Calm - 10SM
01:55
Clear
61°F / 16°C 59°F / 15°C 94% 29.98 in
(1015 mb)
Calm - 10SM
01:35
Clear
61°F / 16°C 59°F / 15°C 94% 29.98 in
(1015 mb)
Calm - 10SM
01:15
Clear
61°F / 16°C 59°F / 15°C 94% 29.98 in
(1015 mb)
Calm - 10SM
00:55
Clear
61°F / 16°C 59°F / 15°C 94% 29.98 in
(1015 mb)
Calm - 10SM
00:35
Clear
61°F / 16°C 61°F / 16°C 100% 29.98 in
(1015 mb)
Calm - 10SM
00:15
Clear
61°F / 16°C 61°F / 16°C 100% 29.98 in
(1015 mb)
Calm - 10SM
Time Weather Temperature Dewpoint Humidity Pressure Winds Precip Visibility


Weather for websites

WeatherForYou.com, LLC is not responsible for any damages or problems caused by this service. Current weather conditions are obtained from the closest station including government and personal stations which may have varying degrees of accuracy. Weather forecasts are derived from the NOAA NDFD. Like all things, this site belongs to Jesus Christ... He just trusts us to maintain it. If you have any questions or comments email webmaster@weatherforyou.com

Copyright © 2016, WeatherForYou.com LLC. All rights reserved.